sat.trackr.live / text

‹ back to catalog

STARLINK-35562

NORAD 66063 · 2025-235F

PAYLOAD ACTIVE UNKNOWN

§ Identity

Operator
Country
US
Launch date
2025-10-19
Launch site
AFETR
Launch vehicle
Mass (kg)
RCS (m²)

Purposes: comms

External: N2YO · Heavens-Above · Gunter

§ Orbital elements

Epoch: 2026-09-20T22:10:04.135872Z

Period
93.85 min
Inclination
53.1628°
Eccentricity
0.0000900
Mean motion
15.34424359 rev/d
Perigee alt
462.0 km
Apogee alt
463.2 km
Semi-major
6,840.8 km
B*
4.1458e-4
RAAN
57.6518°
Arg perigee
74.6766°
Mean anomaly
285.4336°
Rev number
5,282

§ Raw data

STARLINK-355621 66063U 25235F   26263.92365898  .00013667  00000+0  41458-3 0  99942 66063  53.1628  57.6518 0000900  74.6766 285.4336 15.34424359 52823

JSON: /api/v1/satellites/66063 · /tle

For live sub-satellite position, see the globe view (requires WebGL).

§ Visibility from observer

Set your observer location to see the next 7 days of passes ≥ 10°. The values pass through the URL so the page stays shareable.

No JS? Fill the form by hand. The geolocation button needs JavaScript.